| time (UTC) | temp C | wind direction | speed KPH | gust KPH | rain 1hr cm | rain 24hr cm | rain mn cm | humidity % | barometer mb |
| 20260504082001 | 15 | 290 | 0.0 | 19.3 | 0.08 | 0.79 | 0.20 | 66 | 1011.5 |
| 20260504080500 | 15 | 290 | 0.0 | 19.3 | 0.08 | 0.79 | 0.20 | 62 | 1011.3 |
| 20260504050502 | 18 | 285 | 6.4 | 19.3 | 0.08 | 0.94 | 0.20 | 55 | 1010.6 |
| 20260504045001 | 18 | 270 | 3.2 | 19.3 | 0.08 | 0.94 | 0.20 | 56 | 1010.4 |
| 20260504043501 | 18 | 347 | 4.8 | 19.3 | 0.08 | 0.94 | 0.20 | 54 | 1010.4 |
| 20260504042002 | 18 | 340 | 3.2 | 19.3 | 0.08 | 0.94 | 0.20 | 55 | 1010.5 |
| 20260504040502 | 18 | 236 | 8.0 | 19.3 | 0.08 | 0.94 | 0.20 | 55 | 1010.4 |
| 20260504035001 | 18 | 291 | 4.8 | 19.3 | 0.08 | 0.94 | 0.20 | 57 | 1010.3 |
| 20260504033501 | 18 | 259 | 12.9 | 19.3 | 0.08 | 0.94 | 0.20 | 58 | 1010.4 |
| 20260504032002 | 18 | 289 | 8.0 | 19.3 | 0.08 | 0.94 | 0.20 | 60 | 1010.6 |
| 20260504030502 | 17 | 317 | 1.6 | 19.3 | 0.08 | 0.94 | 0.20 | 62 | 1010.8 |
| 20260504025001 | 17 | 294 | 11.3 | 19.3 | 0.08 | 0.94 | 0.20 | 64 | 1011.0 |
| 20260504023431 | 17 | 265 | 6.4 | 19.3 | 0.08 | 0.94 | 0.20 | 64 | 1011.1 |
| 20260504021703 | 17 | 251 | 9.7 | 19.3 | 0.08 | 0.94 | 0.20 | 69 | 1011.2 |
| 20260504020203 | 17 | 5 | 1.6 | 19.3 | 0.08 | 0.94 | 0.20 | 73 | 1011.5 |
| 20260504014704 | 16 | 315 | 1.6 | 19.3 | 0.08 | 0.97 | 0.20 | 76 | 1011.6 |
| 20260504013204 | 16 | 334 | 6.4 | 19.3 | 0.08 | 0.97 | 0.20 | 77 | 1011.9 |
| 20260504011703 | 16 | 291 | 1.6 | 19.3 | 0.08 | 0.97 | 0.20 | 76 | 1012.0 |
| 20260504010204 | 16 | 342 | 4.8 | 19.3 | 0.08 | 0.97 | 0.20 | 80 | 1012.1 |
| 20260504004703 | 16 | 290 | 3.2 | 19.3 | 0.08 | 0.97 | 0.20 | 84 | 1012.1 |
| 20260504003204 | 15 | 12 | 0.0 | 19.3 | 0.08 | 0.97 | 0.20 | 87 | 1012.2 |
| 20260503110338 | 17 | 24 | 4.8 | 8.0 | 0.18 | 0.30 | 0.18 | 94 | 1011.8 |
| 20260503090338 | 18 | 323 | 1.6 | 8.0 | 0.18 | 0.30 | 0.18 | 92 | 1011.6 |